#timestamp,LO_Frequency,Hit 
1499108415.6,286046998.5,N
1499108435.4,286046998.1,N
1499108455.3,286047001.0,N
1499108475.1,286047001.1,N
1499108495.9,286047001.2,N
1499108515.7,286047000.1,N
1499108535.5,286047000.8,N
1499108555.4,286046998.8,N
1499108575.2,286046998.4,N
1499108595.0,286046998.1,N
1499108595.9,286046998.1,N
1499108615.8,286046998.7,N
1499108635.6,286046998.9,N
1499108655.5,286047000.8,N
1499108675.3,286046998.5,N
1499108695.1,286047001.2,N
1499108715.9,286046998.5,N
1499108735.7,286047000.4,N
1499108755.5,286047011.9,Y
1499108775.4,286046996.7,N
1499108795.2,286046999.2,N
1499108815.1,286046996.9,N
1499108816.0,286046996.9,N
1499108835.8,286046996.8,N
1499108855.6,286046999.5,N
1499108875.5,286046999.0,N
1499108895.3,286046998.1,N
1499108915.1,286046998.4,N
1499108935.9,286046998.3,N
1499108955.7,286046999.0,N
1499108975.6,286046998.9,N
1499108995.4,286046998.8,N
1499109015.2,286046998.7,N
1499109035.1,286046999.4,N
1499109036.0,286046999.4,N
1499109055.8,286046999.4,N
1499109075.6,286046996.5,N
1499109095.5,286046996.6,N
1499109115.3,286046997.0,N
1499109135.2,286046999.5,N
1499109155.9,286046996.6,N
1499109175.7,286046996.7,N
1499109195.6,286046997.3,N
1499109215.4,286046997.4,N
1499109235.2,286046997.9,N
1499109255.1,286046997.3,N
1499109256.0,286046997.3,N
1499109275.8,286046998.9,N
1499109295.7,286046996.9,N
1499109315.5,286046999.5,N
1499109335.3,286046999.5,N
1499109355.2,286046998.9,N
1499109375.0,286046999.1,N
1499109375.9,286046999.1,N
1499109395.7,286046998.6,N
1499109415.6,286047001.2,N
1499109435.4,286046998.3,N
1499109455.3,286046998.5,N
1499109475.1,286046999.2,N
1499109476.0,286046999.2,N
1499109495.8,286047000.9,N
1499109515.7,286047000.0,N
1499109535.5,286046998.5,N
1499109555.3,286047001.2,N
1499109575.2,286046999.4,N
1499109595.0,286046998.6,N
1499109595.9,286046998.6,N
1499109615.8,286046998.2,N
1499109635.6,286046999.7,N
1499109655.4,286047000.1,N
1499109675.3,286047000.1,N
1499109695.1,286047000.2,N
1499109715.8,286047002.3,N
1499109735.7,286047001.6,N
1499109755.5,286047001.6,N
1499109775.4,286047002.6,N
1499109795.2,286047002.7,N
1499109815.0,286047002.3,N
1499109815.9,286047002.3,N
1499109835.8,286047002.5,N
1499109855.6,286047002.6,N
1499109875.4,286047001.9,N
1499109895.3,286047002.4,N
1499109915.1,286047002.5,N
1499109935.9,286046999.9,N
1499109955.7,286046999.8,N
1499109975.5,286047000.2,N
1499109995.4,286047002.8,N
1499110015.2,286047001.6,N
1499110035.0,286047002.2,N
1499110035.9,286047002.2,N
1499110055.8,286047001.6,N
1499110075.6,286047002.2,N
1499110095.5,286047001.6,N
1499110115.3,286047002.7,N
1499110135.1,286046999.7,N
1499110155.9,286047002.6,N
1499110175.7,286047002.8,N
1499110195.6,286047002.3,N
1499110215.4,286047001.4,N
1499110235.2,286047002.0,N
1499110255.1,286047001.4,N
1499110256.0,286047001.4,N
1499110275.8,286047003.9,N
1499110295.6,286047003.9,N
1499110315.5,286047001.4,N
1499110335.3,286047004.3,N
1499110355.2,286047004.0,N
1499110375.9,286047003.3,N
1499110395.7,286047003.3,N
1499110415.6,286047003.1,N
1499110435.4,286047003.5,N
1499110455.2,286047003.2,N
1499110475.1,286047003.1,N
1499110476.0,286047003.1,N
1499110495.8,286047003.3,N
1499110515.7,286047003.6,N
1499110535.5,286047002.9,N
1499110555.3,286047003.1,N
1499110575.2,286047003.3,N
1499110595.0,286047003.7,N
1499110595.9,286047003.7,N
1499110615.7,286047003.5,N
1499110635.6,286047005.5,N
1499110655.4,286047005.5,N
1499110675.3,286047005.7,N
1499110695.1,286047005.4,N
1499110696.0,286047005.4,N
1499110715.8,286047005.6,N
1499110735.7,286047005.4,N
1499110755.5,286047004.7,N
1499110775.3,286047004.8,N
1499110795.2,286047007.6,N
1499110815.0,286047004.6,N
1499110815.9,286047004.6,N
1499110835.8,286047007.2,N
1499110855.6,286047004.5,N
1499110875.4,286047007.1,N
1499110895.3,286047004.7,N
1499110915.1,286047007.4,N
1499110935.8,286047007.4,N
1499110955.7,286047007.3,N
1499110975.5,286047004.8,N
1499110995.4,286047007.1,N
1499111015.2,286047007.4,N
1499111035.0,286047006.8,N
1499111035.9,286047006.8,N
1499111055.8,286047006.8,N
1499111075.6,286047009.2,Y
1499111095.5,286047007.6,N
1499111115.3,286047005.2,N
1499111135.1,286047004.5,N
1499111155.9,286047007.1,N
1499111175.7,286047004.5,N
1499111195.6,286047004.9,N
1499111215.4,286047007.5,N
1499111235.3,286047007.4,N
1499111255.1,286047007.2,N
1499111256.0,286047007.2,N
1499111275.8,286047006.1,N
1499111295.7,286047006.6,N
1499111315.5,286047006.5,N
1499111335.3,286047008.9,N
1499111355.2,286047006.4,N
1499111375.0,286047008.5,N
1499111375.9,286047008.5,N
1499111395.8,286047007.7,N
1499111415.6,286047007.9,N
1499111435.5,286047010.4,Y
1499111455.3,286047005.4,N
1499111475.1,286047005.8,N
1499111495.9,286047004.7,N
1499111515.7,286047007.1,N
1499111535.6,286047006.4,N
1499111555.4,286047007.4,N
1499111575.2,286047007.0,N
1499111595.1,286047004.5,N
1499111596.0,286047004.5,N
1499111615.8,286047004.5,N
1499111635.6,286047004.6,N
1499111655.5,286047007.2,N
1499111675.3,286047006.6,N
1499111695.2,286047006.1,N
1499111715.9,286047009.1,Y
1499111735.7,286047002.9,N
1499111755.6,286047005.5,N
1499111775.4,286047005.3,N
1499111795.2,286047005.2,N
1499111815.1,286047005.4,N
1499111816.0,286047005.4,N
1499111835.8,286047007.6,Y
1499111855.7,286047000.1,N
1499111875.5,286047000.5,N
1499111895.3,286047000.3,N
1499111915.2,286047000.1,N
1499111935.0,286047000.0,N
1499111935.9,286047000.0,N
1499111955.8,286047000.9,N
1499111975.6,286047000.9,N
1499111995.4,286047001.0,N
